This is the latest recevied weather packets stored in our database for station/object K1FFK-1. If no packets are shown the sender has not sent any weather packets the latest 10 day(s).
| Time | Temp. | Humidity | Pressure | Rain* | Wind** | Luminosity | Snow |
|---|---|---|---|---|---|---|---|
| 1777858893 | 2.22° C | 63% | 1011.9 hPa | 0 mm | - | - | - |
| 1777858293 | 1.67° C | 62% | 1011.7 hPa | 0 mm | - | - | - |
| 1777857694 | 1.67° C | 62% | 1011.7 hPa | 0 mm | - | - | - |
| 1777857094 | 1.67° C | 61% | 1011.6 hPa | 0 mm | - | - | - |
| 1777856493 | 2.22° C | 59% | 1011.6 hPa | 0 mm | - | - | - |
| 1777855894 | 2.22° C | 58% | 1011.2 hPa | 0 mm | - | - | - |
| 1777855293 | 2.22° C | 56% | 1011.2 hPa | 0 mm | - | - | - |
| 1777854694 | 2.22° C | 55% | 1011.3 hPa | 0 mm | - | - | - |
| 1777854094 | 2.22° C | 53% | 1011 hPa | 0 mm | - | - | - |
| 1777853493 | 2.22° C | 52% | 1010.8 hPa | 0 mm | - | - | - |
| 1777852893 | 2.22° C | 52% | 1010.8 hPa | 0 mm | - | - | - |
| 1777852293 | 2.78° C | 50% | 1010.8 hPa | 0 mm | - | - | - |
| 1777851694 | 2.78° C | 49% | 1010.8 hPa | 0 mm | - | - | - |
| 1777851093 | 2.78° C | 48% | 1010.5 hPa | 0 mm | - | - | - |
| 1777850494 | 2.78° C | 47% | 1010.8 hPa | 0 mm | - | - | - |
| 1777849894 | 2.78° C | 47% | 1010.7 hPa | 0 mm | - | - | - |
| 1777849294 | 2.78° C | 47% | 1010.6 hPa | 0 mm | - | - | - |
| 1777848694 | 3.33° C | 48% | 1010.7 hPa | 0 mm | - | - | - |
| 1777848093 | 3.33° C | 49% | 1010.7 hPa | 0 mm | - | - | - |
| 1777847495 | 3.33° C | 50% | 1010.7 hPa | 0 mm | - | - | - |
| 1777846894 | 2.78° C | 51% | 1010.6 hPa | 0 mm | - | - | - |
| 1777846293 | 2.78° C | 53% | 1010.4 hPa | 0 mm | - | - | - |
| 1777845694 | 2.78° C | 53% | 1010.5 hPa | 0 mm | - | - | - |
| 1777845094 | 2.22° C | 57% | 1010.7 hPa | 0 mm | - | - | - |
| 1777844494 | 2.22° C | 57% | 1010.5 hPa | 0 mm | - | - | - |
* Rain latest hour (hover to see other rain measurements)
** Current wind speed in m/s (hover to see current wind gust speed)